Location: Newark
(40.9464°N, 15.0486°E)
Time: 13:07:17
(UTC+00:00)

ISS - Visible Passes

Search period start: 15 December 2019 00:00
Search period end: 25 December 2019 00:00
Orbit: 411 x 421 km, 51.6° (Epoch: 15 December)

Date Brightness Start Highest point End Pass type
(mag) Time Alt. Az. Time Alt. Az. Time Alt. Az.
19 Dec 0.1 05:21:51 10° SE 05:22:30 10° SE 05:23:08 10° ESE visible
21 Dec -1.6 05:18:50 10° SSW 05:21:46 29° SE 05:24:42 10° ENE visible
22 Dec -0.8 04:31:07 10° S 04:33:21 17° SE 04:35:35 10° E visible
23 Dec -3.8 05:17:53 10° SW 05:21:12 87° SE 05:24:31 10° NE visible
24 Dec -2.9 04:31:28 31° SSW 04:32:38 48° SE 04:35:52 10° ENE visible
